Terug naar catalogus

AO-95

ActiefAmateurradioSSO
NORAD 43770·PAYLOAD·🇺🇸 United States

Gelanceerd Dec 3, 2018 vanaf Vandenberg Space Force Base

Loading…

Volgende Passages (komende 24 uur)

TLE

VersSource: AMSAT

Epoch: Sep 14, 2026, 14:57 UTC

1 43770U 18099N   26257.62311903  .00008878  00000-0  32330-3 0  9990
2 43770  97.4286 317.6039 0009013  41.0365 319.1551 15.28407823426872

Volg AO-95 in realtime met AllMySat

Download on the App Store